Regional Weather Roundup
Issued by NWS State College, PA

Home | Current Version | Previous Version | Text Only | Print | Product List | Glossary On
Versions: 1 2 3 4 5 6 7 8 9 10 11 12 13 14 15 16 17 18 19 20 21 22 23 24 25 26 27 28 29 30 31 32 33 34 35 36 37 38 39 40 41 42 43 44 45 46 47 48 49 50
000
ASUS41 KCTP 062310
RWRCTP

REGIONAL WEATHER ROUNDUP
NATIONAL WEATHER SERVICE STATE COLLEGE PA
600 PM EST SAT FEB 06 2016

Note: "fair" indicates few or no clouds below 12,000 feet with no
significant weather and/or obstructions to visibility.

* = STATION THAT DOES NOT REPORT PRECIPITATION /E.G. RAIN...SNOW...ETC/
    THUNDER OR FOG.

PAZ002>004-007>009-013>016-020>023-029>032-070000-
WESTERN PENNSYLVANIA

CITY           SKY/WX    TMP DP  RH WIND       PRES   REMARKS
ERIE           CLEAR     32  19  58 W5        30.20S
MEADVILLE      CLEAR     35  17  47 SW5       30.17S
FRANKLIN*      CLEAR     34  14  44 SW5       30.20S
NEW CASTLE     FAIR      37  15  40 SW6       30.21R
BEAVER COUNTY  NOT AVBL
BUTLER*        CLEAR     37  14  38 SW5       30.23S
PITTSBURGH INT PTCLDY    39  14  36 W6        30.21R
PITTSBURGH     CLEAR     40  15  36 W7        30.20R
INDIANA*       CLEAR     37  18  44 W3        30.22R
LATROBE        CLEAR     37  16  41 W12       30.21S
WASHINGTON CO* CLEAR     37  12  35 SW7       30.22R
$$

PAZ004>006-010>012-017>019-024>028-033>037-041-042-045-046-049>053-070000-
CENTRAL PENNSYLVANIA

CITY           SKY/WX    TMP DP  RH WIND       PRES   REMARKS
BRADFORD       CLEAR     33  15  47 SW3       30.13S
DUBOIS         CLOUDY    33  15  47 SW5       30.16R
CLEARFIELD     CLOUDY    36  16  44 W6        30.18R
JOHNSTOWN      CLEAR     35  15  44 W6        30.15S
ALTOONA        CLEAR     37  17  44 W6        30.19R
STATE COLLEGE  CLEAR     36  18  48 SW6       30.19R
WILLIAMSPORT   CLOUDY    40  18  41 S16       30.20R
SELINSGROVE    CLOUDY    38  21  50 S7        30.24R
FT INDIANTOWN  PTCLDY    37  19  49 S3        30.26R
CAPITAL CITY   PTCLDY    39  17  41 SW7       30.27S
HARRISBURG     MOCLDY    40  19  43 SW8       30.27R
YORK           CLOUDY    37  19  48 S6        30.27R
$$

PAZ038>040-043-044-047-048-054-055-060>062-067>071-070000-
EASTERN PENNSYLVANIA

CITY           SKY/WX    TMP DP  RH WIND       PRES   REMARKS
SCRANTON       CLOUDY    37  18  46 S3        30.20R
MOUNT POCONO   CLEAR     30  17  58 S8        30.18R
ALLENTOWN      CLEAR     36  20  52 SW6       30.27S
QUAKERTOWN*    PTCLDY    34  21  60 CALM      30.28S
READING        PTCLDY    37  20  50 S6        30.27S
LANCASTER      PTCLDY    37  20  50 S6        30.27S
COATESVILLE    PTCLDY    36  21  55 CALM      30.29S
POTTSTOWN      PTCLDY    36  19  50 SW5       30.30S
BLUE BELL        N/A     32  23  69 CALM      30.28S
DOYLESTOWN     CLEAR     35  18  49 S3        30.27F
WILLOW GROVE   NOT AVBL
NORTH PHILA    CLEAR     39  22  50 SW6       30.31F
PHILADELPHIA   PTCLDY    39  22  50 SW7       30.31S
$$



USA.gov is the U.S. government's official web portal to all federal, state and local government web resources and services.